FW1686 Weather Reports


time (UTC)temp
F
wind
direction
speed
knots
gust
knots
rain 1hr
in
rain 24hr
in
rain mn
in
humidity
%
barometer
mb
20260508053047 46 217 1.7 2.6 0.00 0.00 0.00 59 1013.3
20260508051542 46 229 1.7 4.3 0.00 0.00 0.00 61 1013.4
20260508050041 45 226 1.7 4.3 0.00 0.00 0.00 61 1013.5
20260508044555 45 228 1.7 3.5 0.00 0.00 0.00 62 1013.5
20260508043104 45 237 1.7 4.3 0.00 0.00 0.00 63 1013.4
20260508041505 45 229 0.9 2.6 0.00 0.00 0.00 62 1013.3
20260508040010 46 227 0.9 3.5 0.00 0.00 0.00 62 1013.2
20260508034514 45 235 1.7 3.5 0.00 0.00 0.00 63 1013.2
20260508033027 45 269 0.0 2.6 0.00 0.00 0.00 64 1013.3
20260508031512 45 270 0.9 1.7 0.00 0.00 0.00 63 1013.3
20260508030031 46 271 0.9 2.6 0.00 0.00 0.00 63 1013.3
20260508024531 46 275 0.9 2.6 0.00 0.00 0.00 63 1013.3
20260508023036 46 278 1.7 3.5 0.00 0.00 0.00 63 1013.2
20260508021539 47 284 0.9 3.5 0.00 0.00 0.00 61 1013.1
20260508020049 47 290 1.7 4.3 0.00 0.00 0.00 60 1012.9
20260508014534 49 288 2.6 6.1 0.00 0.00 0.00 57 1012.7
20260508013037 50 294 2.6 7.0 0.00 0.00 0.00 54 1012.5
20260508011552 50 277 3.5 7.8 0.00 0.00 0.00 53 1012.4
20260508010043 51 320 3.5 9.6 0.00 0.00 0.00 51 1012.0
20260508004533 52 273 5.2 11.3 0.00 0.00 0.00 50 1011.9
20260508003038 52 259 3.5 11.3 0.00 0.00 0.00 49 1011.7
20260508001541 53 267 7.0 12.2 0.00 0.00 0.00 49 1011.3
20260508000041 54 335 6.1 13.9 0.00 0.00 0.00 48 1011.1
20260507234532 55 298 6.1 13.0 0.00 0.00 0.00 47 1011.0
20260507233053 55 317 9.6 14.8 0.00 0.00 0.00 47 1010.9
20260507231543 56 304 8.7 15.6 0.00 0.00 0.00 47 1010.8
20260507230051 57 285 8.7 17.4 0.00 0.00 0.00 44 1010.6
20260507224554 57 360 7.0 15.6 0.00 0.00 0.00 44 1010.5
20260507223101 58 304 7.8 16.5 0.00 0.00 0.00 43 1010.3
20260507221503 57 319 4.3 11.3 0.00 0.00 0.00 43 1010.3
20260507220009 59 350 3.5 14.8 0.00 0.00 0.00 43 1010.2
20260507214513 58 320 3.5 11.3 0.00 0.00 0.00 42 1010.0
20260507213026 60 297 4.3 14.8 0.00 0.00 0.00 42 1009.7
20260507211531 58 271 8.7 17.4 0.00 0.00 0.00 41 1009.9
20260507210049 59 257 6.1 14.8 0.00 0.00 0.00 42 1009.5
20260507204549 58 313 5.2 13.0 0.00 0.00 0.00 41 1009.4
20260507203054 60 311 7.8 14.8 0.00 0.00 0.00 40 1009.5
20260507201559 58 298 7.0 14.8 0.00 0.00 0.00 41 1009.7
20260507201506 59 327 7.0 14.8 0.00 0.00 0.00 40 1009.6
20260507200009 59 264 7.8 15.6 0.00 0.00 0.00 41 1009.7
20260507194509 59 299 5.2 14.8 0.00 0.00 0.00 42 1009.9
20260507193015 59 283 3.5 15.6 0.00 0.00 0.00 43 1010.0
20260507191527 58 294 2.6 9.6 0.00 0.00 0.00 42 1010.0
20260507190015 58 274 0.9 12.2 0.00 0.00 0.00 44 1010.0
20260507184555 59 328 7.0 14.8 0.00 0.00 0.00 43 1010.1
20260507184504 58 335 7.0 14.8 0.00 0.00 0.00 44 1010.2
20260507183049 60 264 5.2 11.3 0.00 0.00 0.00 44 1010.3
20260507181611 59 277 5.2 13.0 0.00 0.00 0.00 42 1010.3
20260507181501 59 224 5.2 13.0 0.00 0.00 0.00 43 1010.4
20260507180004 59 315 4.3 13.0 0.00 0.00 0.00 45 1010.4
20260507174510 57 269 3.5 9.6 0.00 0.00 0.00 47 1010.7
20260507173025 57 234 3.5 9.6 0.00 0.00 0.00 47 1010.8
20260507171532 58 250 5.2 11.3 0.00 0.00 0.00 47 1010.9
20260507170024 57 252 2.6 9.6 0.00 0.00 0.00 50 1011.2
20260507164530 56 250 2.6 12.2 0.00 0.00 0.00 50 1011.3
20260507163024 57 259 2.6 7.0 0.00 0.00 0.00 52 1011.4
20260507161531 56 294 0.9 4.3 0.00 0.00 0.00 52 1011.3
20260507160038 54 321 4.3 9.6 0.00 0.00 0.00 52 1011.5
20260507154541 55 271 3.5 8.7 0.00 0.00 0.00 52 1011.5
20260507153049 55 189 4.3 8.7 0.00 0.00 0.00 49 1011.7
20260507151559 56 217 1.7 11.3 0.00 0.00 0.00 53 1011.9
20260507150001 55 217 3.5 7.8 0.00 0.00 0.00 54 1012.2
20260507144509 54 223 2.6 8.7 0.00 0.00 0.00 52 1012.5
20260507143021 54 329 4.3 13.9 0.00 0.00 0.00 54 1012.5
20260507141517 54 318 2.6 10.4 0.00 0.00 0.00 57 1012.6
20260507140017 53 312 4.3 10.4 0.00 0.02 0.00 60 1012.8
20260507134523 52 272 2.6 8.7 0.00 0.02 0.00 62 1013.1
20260507133021 52 242 1.7 8.7 0.00 0.02 0.00 63 1013.1
20260507131508 51 301 2.6 7.0 0.00 0.02 0.00 62 1013.1
20260507130009 50 234 1.7 4.3 0.00 0.03 0.00 68 1013.3
20260507124516 49 226 0.9 6.1 0.00 0.03 0.00 69 1013.4
20260507123013 48 231 0.9 3.5 0.00 0.03 0.00 72 1013.4
20260507121521 46 217 1.7 5.2 0.00 0.03 0.00 74 1013.5
20260507120039 45 200 0.9 4.3 0.00 0.10 0.00 78 1013.3
20260507114528 44 351 0.0 0.9 0.00 0.10 0.00 81 1013.4
20260507113042 43 351 0.0 0.9 0.00 0.10 0.00 83 1013.4
20260507111546 41 355 0.0 0.0 0.00 0.10 0.00 85 1013.1
20260507110054 41 355 0.0 0.0 0.00 0.17 0.00 87 1013.0
20260507104534 39 355 0.0 0.0 0.00 0.17 0.00 88 1012.8
20260507103042 39 351 0.0 0.0 0.00 0.17 0.00 87 1012.8
20260507101550 39 351 0.0 0.0 0.00 0.17 0.00 87 1012.5
20260507100051 39 351 0.0 0.0 0.00 0.27 0.00 86 1012.6
20260507094559 39 351 0.0 0.0 0.00 0.27 0.00 85 1012.5
20260507093049 40 351 0.0 0.0 0.00 0.27 0.00 84 1012.4
20260507091554 40 351 0.0 0.0 0.00 0.27 0.00 86 1012.6
20260507090100 40 351 0.0 0.9 0.00 0.36 0.00 85 1012.6
20260507090002 40 351 0.0 1.7 0.00 0.36 0.00 85 1012.7
20260507084510 40 351 0.0 0.0 0.00 0.36 0.00 83 1012.6
20260507083053 41 351 0.0 1.7 0.00 0.36 0.00 82 1012.6
20260507081557 42 351 0.0 1.7 0.00 0.36 0.00 81 1012.7
20260507080100 42 351 0.9 1.7 0.00 0.37 0.00 80 1012.6
20260507080003 42 351 0.9 1.7 0.00 0.37 0.00 80 1012.7
20260507074504 42 351 0.0 0.0 0.00 0.37 0.00 81 1012.6
20260507073008 42 351 0.9 1.7 0.00 0.37 0.00 83 1012.6
20260507071512 43 351 0.0 0.0 0.00 0.37 0.00 81 1012.9
20260507070018 43 351 0.0 0.0 0.00 0.40 0.00 81 1012.9
20260507064523 43 351 0.0 0.0 0.00 0.40 0.00 81 1012.8
20260507063027 44 351 0.0 0.0 0.00 0.40 0.00 78 1012.9
20260507061538 44 351 0.0 2.6 0.00 0.40 0.00 76 1012.9
20260507060043 45 350 0.0 0.0 0.00 0.44 0.00 76 1013.0
20260507054546 45 350 0.0 0.0 0.00 0.44 0.00 75 1013.1